Flag for Lesotho Weather past 2 weeks in Maseru, Lesotho

Now
32 °F

Passing clouds.


Feels Like: 27 °F
Forecast: 29 / 69 °F
Wind: 5 mph from Southwest

Location: Bloemfontein Airport

Current Time: Aug 1, 2014 at 5:57:11 AM

Latest Report: Aug 1, 2014 at 5:00 AM


Visibility: N/A

Pressure: 30.30 "Hg

Humidity: 69%

Dew point: 23 °F

Location of MaseruLocation

Historic Weather in Maseru — Graph

°F

Maseru temperature yesterday

Maximum temperature yesterday: 66 °F (at 2:00 PM)
Minimum temperature yesterday: 32 °F (at 5:00 AM)
Average temperature yesterday: 50 °F

Past Weeks' High & Low Weather Summary

 TemperatureHumidityPressure
High75 °F (Jul 24, 3:00 PM)87% (Jul 30, 5:00 AM)30.63 "Hg (Jul 30, 5:00 AM)
Low21 °F (Jul 27, 7:00 AM)10% (Jul 21, 5:00 PM)29.98 "Hg (Jul 25, 3:00 PM)
Average46 °F49%30.32 "Hg
* Reported Jul 17 5:00 AM — Aug 1 5:00 AM, Maseru, Weather by CustomWeather, © 2014

Note: Actual official high and low records may vary slightly from our data, if they occured in-between our weather recording intervals... More about our weather records

Advertising

Maseru weather history for previous 24 hours

 ConditionsComfort  
Time TempWeatherWind HumidityBarometerVisibility
5:00 AM
Aug 1
32 °FPassing clouds.5 mph69%30.30 "HgN/A
4:00 AM34 °FChilly.2 mph65%30.30 "Hg5 mi
3:00 AM34 °FChilly.6 mph70%30.33 "Hg5 mi
2:00 AM36 °FChilly.1 mph65%30.33 "Hg6 mi
1:00 AM37 °FChilly.2 mph60%30.33 "Hg5 mi
12:00 AM37 °FChilly.3 mph65%30.33 "Hg6 mi
11:00 PM
Jul 31
41 °FQuite cool.3 mph57%30.33 "HgN/A
10:00 PM43 °FQuite cool.1 mph53%30.33 "HgN/A
9:00 PM45 °FQuite cool.1 mph53%30.33 "HgN/A
8:00 PM50 °FClear.1 mph43%30.33 "Hg10 mi
7:00 PM57 °FClear.3 mph36%30.30 "Hg10 mi
6:00 PM61 °FClear.2 mph29%30.30 "Hg10 mi
5:00 PM66 °FClear.5 mph22%30.30 "Hg10 mi
4:00 PM66 °FSunny.12 mph28%30.27 "Hg10 mi
3:00 PM66 °FPassing clouds.9 mph28%30.30 "HgN/A
2:00 PM66 °FSunny.7 mph24%30.33 "Hg10 mi
12:00 PM64 °FPassing clouds.6 mph34%30.36 "HgN/A
11:00 AM59 °FSunny.3 mph39%30.39 "Hg10 mi
10:00 AM52 °FSunny.1 mph47%30.39 "Hg10 mi
9:45 AM52 °FSunny.1 mph50%30.39 "Hg10 mi
9:00 AM45 °FSunny.2 mph57%30.39 "Hg10 mi
8:00 AM39 °FSunny.No wind70%30.42 "Hg10 mi
7:00 AM36 °FSunny.No wind70%30.36 "Hg10 mi
6:00 AM36 °FSunny.1 mph75%30.36 "Hg10 mi
5:00 AM32 °FClear.No wind80%30.39 "Hg10 mi
Weather by CustomWeather, © 2014

See weather overviewHow to use our weather pages